Regional Weather Roundup
Issued by NWS Green Bay, WI

Home | Current Version | Previous Version | Text Only | Print | Product List | Glossary On
Versions: 1 2 3 4 5 6 7 8 9 10 11 12 13 14 15 16 17 18 19 20 21 22 23 24 25 26 27 28 29 30 31 32 33 34 35 36 37 38 39 40 41 42 43 44 45 46 47 48 49 50
000
ASUS43 KGRB 241400
RWRGRB

NORTH-CENTRAL AND NORTHEAST WISCONSIN REGIONAL WEATHER ROUNDUP
NATIONAL WEATHER SERVICE GREEN BAY WI
900 AM CDT SUN MAY 24 2015

WIZ005-009-010>012-018-019-241500-
NORTH CENTRAL WISCONSIN

CITY           SKY/WX    TMP DP  RH WIND       PRES   REMARKS
IRONWOOD       CLOUDY    61  50  67 CALM      30.10S
MANITOWISH WTR NOT AVBL
ARBOR VITAE    NOT AVBL
EAGLE RIVER    NOT AVBL
LAND O LAKES   NOT AVBL
RHINELANDER    CLOUDY    66  46  48 SE5       30.15S
PHILLIPS       NOT AVBL
ANTIGO         NOT AVBL
TOMAHAWK       NOT AVBL
MERRILL        NOT AVBL
$$

WIZ013-073-241500-
NORTHEAST WISCONSIN

CITY           SKY/WX    TMP DP  RH WIND       PRES   REMARKS
IRON MOUNTAIN  PTSUNNY   68  47  46 CALM      30.13S
MARINETTE      CLOUDY    66  46  48 CALM      30.13S
$$

WIZ017-030-035>037-045-241500-
CENTRAL WISCONSIN

CITY           SKY/WX    TMP DP  RH WIND       PRES   REMARKS
MEDFORD        NOT AVBL
WAUSAU         CLOUDY    64  50  60 SE3       30.12S
MOSINEE        SUNNY     63  52  67 CALM      30.14F
MARSHFIELD     CLOUDY    66  48  52 SE5       30.12S
WISC RAPIDS    CLOUDY    65  47  52 S5        30.13F
STEVENS POINT  NOT AVBL
WAUPACA        NOT AVBL
SHAWANO        NOT AVBL
CLINTONVILLE   NOT AVBL
$$

WIZ038-039-048-051-241500-
FOX VALLEY

CITY           SKY/WX    TMP DP  RH WIND       PRES   REMARKS
NWS GREEN BAY  CLOUDY    65  48  54 S3        30.14F
APPLETON       PTSUNNY   64  48  55 VRB5      30.14F
OSHKOSH        CLOUDY    69  52  54 S7        30.13F
FOND DU LAC    CLOUDY    69  48  47 S7        30.14S
$$

WIZ022-050-052-241500-
EAST CENTRAL WISCONSIN

CITY           SKY/WX    TMP DP  RH WIND       PRES   REMARKS
STURGEON BAY   CLOUDY    66  45  45 S8        30.17S
MANITOWOC      NOT AVBL
SHEBOYGAN      PTSUNNY   67  51  56 S3        30.15F
$$

LMZ563-521-522-541>543-241500-
LAKESHORE

STATION/POSITION TIME  TEMP    WIND        PRES    VSBY  WAVE
                       AIR SEA DIR/SP/G                  HT/PER
                 (UTC) (F)     (DEG/KT/KT) (MB)    (MI)  (FT/S)
SHEBOYGAN LKSHOR 1300   51     170/  6/  6 1021.8F
KEWAUNEE LKSHORE 1300   49     170/  5/  7 1020.6S
NORTHPORT PIER   1300   52     150/  2/  8 1020.7F
N MID LAKE BUOY  1250   43 36  170/ 12/ 12 1021.6F         1
SISTER BAY LKSHO 1302   71        CALM       N/A
CHAMBERS ISLAND  1300   65     180/  2/  4 1020.7F
MENOMINEE LKSHOR 1300   56     140/  6/  6 1021.0F
$$


USA.gov is the U.S. government's official web portal to all federal, state and local government web resources and services.